Zurück zum Katalog

STARLINK-35240

AktivKommunikationSSO
NORAD 65655·PAYLOAD·🇺🇸 United States

Gestartet Sep 19, 2025 von Vandenberg Space Force Base

Loading…

Nächste Überflüge (nächste 24 Stunden)

TLE

AktuellSource: CelesTrak SupGP

Epoche: Sep 14, 2026, 23:14 UTC

1 65655C 25211D   26257.96854167  .00052644  00000+0  16343-2 0  2572
2 65655  97.2841 298.2634 0000972  99.3298 288.1641 15.33411933    16

Verfolge STARLINK-35240 in Echtzeit mit AllMySat

Download on the App Store